[[{"header":{"parameterUnit":"m.s-1","parameterCategory":1,"la1":30.2991,"la2":30.254,"lo1":-89.0895,"lo2":-89.0444,"dy":0.0017,"dx":0.0017,"nx":28,"ny":28,"refTime":"2026-01-31T03:00:00:Z","depth":0,"parameterNumber":2,"parameterNumberName":"U-component_of_WINDS"},"data":[0,0,0,0,0,0,0,0,0,0,0,0,0,0,0,0,0,0,0,0,0,0,0,0,0,0,0,0,0,0,0,0,0,0,0,0,0,0,0,0,0,0,0,0,0,0,0,0,0,0,0,0,0,0,0,0,0,0,2.6321,2.6322,0,2.639,2.6391,2.6392,2.6376,2.6375,2.6373,2.6372,2.6441,2.6444,2.6447,0,0,0,0,0,0,0,0,0,0,0,0,0,2.6176,2.6178,2.6321,2.6322,2.6323,2.639,2.6391,2.6392,2.6376,2.6375,2.6373,2.6372,2.644,2.6443,2.6447,0,0,0,0,0,0,0,0,0,0,0,0,0,2.6241,2.6179,2.6321,2.6323,2.6324,2.639,2.6391,2.6392,2.6377,2.6375,2.6373,2.6371,2.6439,2.6443,2.6447,2.6515,0,0,2.6461,2.6463,0,0,0,0,0,0,0,0,2.6237,2.6246,2.6322,2.6323,2.6324,2.6373,2.6365,2.6433,2.6377,2.6357,2.6372,2.637,2.642,2.6425,2.6443,2.6518,2.6521,2.6462,2.6465,2.6467,2.6468,0,0,0,0,0,0,0,2.6233,2.6243,2.6348,2.6323,2.6325,2.6321,2.6328,2.6378,2.6398,2.6358,2.6357,2.6366,2.642,2.6438,2.6444,2.6522,2.6462,2.6466,2.6469,2.647,2.6657,2.666,0,0,0,0,0,0,2.6228,2.624,2.6346,2.635,2.6275,2.6325,2.6333,2.6359,2.6398,2.6402,2.6367,2.6365,2.6431,2.6439,2.6446,2.6529,2.6466,2.6471,2.6473,2.6655,2.6658,2.666,0,0,0,0,0,0,2.6224,2.6237,2.6343,2.6295,2.6308,2.6329,2.6359,2.6361,2.638,2.6404,2.6408,2.6383,2.643,2.644,2.6498,2.6531,2.6473,2.6477,2.6653,2.6656,2.6659,2.6693,0,0,0,0,0,0,2.622,2.6236,2.6262,2.6296,2.6311,2.6394,2.6361,2.6364,2.6388,2.6385,2.642,2.6423,2.6429,2.6492,2.6503,2.6536,2.648,2.665,2.6654,2.6658,2.6689,2.6698,2.6704,0,0,0,0,0,2.6215,2.6268,2.6263,2.6276,2.6343,2.6396,2.6405,2.6411,2.6391,2.6417,2.6433,2.6422,2.6526,2.6498,2.651,2.6545,2.6648,2.6653,2.6658,2.6686,2.6696,2.6704,0,0,0,0,0,0,2.6236,2.6272,2.6267,2.6333,2.6362,2.6394,2.6426,2.6421,2.6456,2.6452,2.6458,2.6466,2.6526,2.6541,2.6509,2.6613,2.6584,2.6591,2.6601,2.6611,2.6618,2.6613,2.6484,0,0,0,0,0,2.6249,2.6289,2.6318,2.6373,2.6388,2.6405,2.6428,2.6431,2.6461,2.6473,2.6493,2.6522,2.6561,2.6587,2.6624,2.6692,2.67,2.6722,2.673,2.6736,2.6742,2.6781,2.6792,2.6677,2.6677,2.6677,0,0,2.6274,2.6299,2.6324,2.6378,2.64,2.6442,2.6415,2.646,2.6491,2.6479,2.6536,2.6552,2.6585,2.6649,2.6678,2.6664,2.6776,2.6742,2.6747,2.675,2.6788,2.6798,2.6808,2.668,2.668,2.6679,0,0,2.6342,2.6365,2.6414,2.6438,2.6473,2.6484,2.6496,2.653,2.654,2.6598,2.659,2.6627,2.6694,2.6718,2.674,2.682,2.6812,2.6831,2.6871,2.6908,2.6917,2.6925,2.6955,2.6966,2.6838,2.6838,2.6838,0,2.6369,2.6432,2.6439,2.6486,2.651,2.6503,2.6553,2.6575,2.6621,2.6638,2.6621,2.6707,2.6728,2.6799,2.6819,2.6836,2.685,2.6827,2.6916,2.6924,2.6931,2.696,2.6971,2.684,2.684,2.684,2.684,0,2.6465,2.6509,2.6544,2.659,2.6618,2.6666,2.668,2.6708,2.6709,2.6722,2.6781,2.6807,2.6851,2.6867,2.6868,2.6939,2.6929,2.6914,2.6884,2.6945,2.6971,2.6982,2.6844,2.6843,2.6842,2.6842,0,0,2.6547,2.6597,2.661,2.6632,2.6671,2.6705,2.6753,2.6797,2.6821,2.6853,2.6894,2.6952,2.6939,2.6963,2.6966,2.7,2.7063,2.6981,2.6982,2.6996,2.7144,2.7155,2.7168,2.7058,2.706,2.7062,2.7142,0,2.6619,2.6705,2.6713,2.679,2.6831,2.6826,2.6868,2.6897,2.6911,2.6948,2.6963,2.7004,2.6984,2.6999,2.7031,2.7048,2.7093,2.7043,2.7096,2.7098,2.7089,2.7182,2.7193,2.7267,2.7152,2.7154,2.7155,0,2.6715,2.6752,2.6833,2.6868,2.6886,2.6923,2.6965,2.7,2.7033,2.7041,2.707,2.7069,2.7119,2.7088,2.7157,2.7123,2.7146,2.7158,2.7161,2.7166,2.7131,2.719,2.7291,2.7302,2.7171,2.717,2.7169,0,2.6768,2.6838,2.6896,2.6914,2.6956,2.6983,2.7002,2.7034,2.706,2.7096,2.7113,2.7154,2.7177,2.7209,2.722,2.7196,2.7289,2.7258,2.7298,2.7298,2.7318,2.7316,2.7424,2.7331,2.7331,2.7331,2.7331,0,2.6849,2.6899,2.692,2.6956,2.7012,2.7022,2.7077,2.7095,2.7123,2.7162,2.7159,2.7196,2.7208,2.7247,2.7256,2.7313,2.7323,2.7331,2.7333,2.7332,2.7331,2.7346,2.7342,2.7334,2.7333,2.7333,2.7332,0,2.6918,2.6934,2.6997,2.7033,2.7043,2.7083,2.7114,2.7149,2.7163,2.7213,2.7225,2.7247,2.7293,2.7307,2.7362,2.7368,2.7435,2.7431,2.7424,2.7424,2.7463,2.746,2.7585,2.7603,2.7498,2.7499,2.75,0,2.6968,2.7007,2.7048,2.7074,2.7095,2.7137,2.7164,2.7176,2.7204,2.7246,2.7276,2.7322,2.7359,2.7433,2.7453,2.7496,2.7494,2.7535,2.75,2.7499,2.7496,2.7494,2.7498,2.7542,2.7543,2.7544,2.7545,0,2.7056,2.7063,2.7103,2.7146,2.7179,2.7214,2.7247,2.7269,2.7285,2.7317,2.7365,2.7394,2.7451,2.7497,2.754,2.756,2.7556,2.7556,2.7567,2.7567,2.7561,2.7566,2.7443,2.7553,2.7552,2.7551,2.7551,2.755,2.7118,2.7153,2.7188,2.7233,2.7259,2.7291,2.7326,2.7345,2.7385,2.7433,2.7437,2.7489,2.7523,2.7581,2.7603,2.7644,2.7632,2.7648,2.7653,2.7657,2.766,2.7554,2.7652,2.7651,2.7651,2.7651,2.7651,0,2.7207,2.723,2.7271,2.7319,2.7354,2.7348,2.7385,2.7415,2.7461,2.7493,2.753,2.7586,2.7631,2.7656,2.7701,2.7729,2.7728,2.774,2.7739,2.7744,2.7668,2.7654,2.774,2.774,2.774,2.774,2.774,2.774,2.7258,2.7317,2.7328,2.7401,2.7423,2.7475,2.7496,2.7526,2.7552,2.7614,2.7652,2.7668,2.7698,2.7746,2.7787,2.7793,2.781,2.7824,2.7829,2.7758,2.7749,2.774,2.7727,2.7827,2.7827,2.7901,2.7902,2.7902]},{"header":{"parameterUnit":"m.s-1","parameterCategory":1,"la1":30.2991,"la2":30.254,"lo1":-89.0895,"lo2":-89.0444,"dy":0.0017,"dx":0.0017,"nx":28,"ny":28,"refTime":"2026-01-31T03:00:00:Z","depth":0,"parameterNumber":3,"parameterNumberName":"V-component_of_WINDS"},"data":[0,0,0,0,0,0,0,0,0,0,0,0,0,0,0,0,0,0,0,0,0,0,0,0,0,0,0,0,0,0,0,0,0,0,0,0,0,0,0,0,0,0,0,0,0,0,0,0,0,0,0,0,0,0,0,0,0,0,-2.4375,-2.4376,0,-2.4498,-2.45,-2.4501,-2.4532,-2.4531,-2.4531,-2.453,-2.4658,-2.4662,-2.4666,0,0,0,0,0,0,0,0,0,0,0,0,0,-2.4166,-2.417,-2.4374,-2.4376,-2.4378,-2.4498,-2.45,-2.4502,-2.4532,-2.4531,-2.453,-2.4529,-2.4656,-2.4661,-2.4666,0,0,0,0,0,0,0,0,0,0,0,0,0,-2.427,-2.4171,-2.4374,-2.4407,-2.4412,-2.4498,-2.45,-2.4502,-2.4533,-2.4531,-2.453,-2.4529,-2.4655,-2.4661,-2.4667,-2.4729,0,0,-2.4686,-2.4688,0,0,0,0,0,0,0,0,-2.4264,-2.4278,-2.4401,-2.4405,-2.441,-2.4499,-2.4473,-2.4578,-2.4533,-2.4487,-2.453,-2.4528,-2.4606,-2.4616,-2.4642,-2.4735,-2.474,-2.4686,-2.469,-2.4693,-2.4694,0,0,0,0,0,0,0,-2.4257,-2.4273,-2.4424,-2.4403,-2.4408,-2.4417,-2.443,-2.4493,-2.4551,-2.4491,-2.4493,-2.4507,-2.4608,-2.4636,-2.4645,-2.4742,-2.4686,-2.4692,-2.4695,-2.4698,-2.4895,-2.4896,0,0,0,0,0,0,-2.4244,-2.4266,-2.442,-2.4427,-2.4333,-2.4421,-2.4436,-2.4471,-2.4551,-2.4562,-2.4508,-2.4508,-2.4626,-2.4638,-2.465,-2.4729,-2.4693,-2.4698,-2.4702,-2.4893,-2.4895,-2.4897,0,0,0,0,0,0,-2.4239,-2.4257,-2.4415,-2.4348,-2.4368,-2.4426,-2.4465,-2.4474,-2.4502,-2.4564,-2.4575,-2.4526,-2.4625,-2.4641,-2.4709,-2.4734,-2.4701,-2.4707,-2.4892,-2.4894,-2.4896,-2.4888,0,0,0,0,0,0,-2.4233,-2.4255,-2.4279,-2.4348,-2.4372,-2.4472,-2.4467,-2.4478,-2.4513,-2.4514,-2.4583,-2.4594,-2.4625,-2.47,-2.4716,-2.4742,-2.4712,-2.489,-2.4893,-2.4895,-2.4886,-2.489,-2.4893,0,0,0,0,0,-2.4226,-2.4272,-2.428,-2.4298,-2.4403,-2.4473,-2.4487,-2.4522,-2.4515,-2.454,-2.4579,-2.4591,-2.4729,-2.4707,-2.4725,-2.4753,-2.4888,-2.4892,-2.4895,-2.4885,-2.4889,-2.4893,0,0,0,0,0,0,-2.4204,-2.4281,-2.4291,-2.4361,-2.441,-2.4478,-2.4511,-2.4525,-2.4578,-2.4577,-2.4619,-2.4634,-2.47,-2.4733,-2.4708,-2.4819,-2.4809,-2.4816,-2.4795,-2.4799,-2.4802,-2.4793,-2.4717,0,0,0,0,0,-2.4207,-2.4258,-2.4323,-2.4378,-2.4402,-2.4452,-2.4484,-2.4507,-2.456,-2.4581,-2.4626,-2.4677,-2.4732,-2.4767,-2.4821,-2.4891,-2.4908,-2.492,-2.4923,-2.4925,-2.4931,-2.4973,-2.498,-2.4908,-2.4908,-2.4908,0,0,-2.4215,-2.4263,-2.4293,-2.4375,-2.4416,-2.4468,-2.4469,-2.4524,-2.4564,-2.4589,-2.4657,-2.4692,-2.4752,-2.4822,-2.4855,-2.4852,-2.4955,-2.4929,-2.4931,-2.4936,-2.4977,-2.4984,-2.499,-2.491,-2.491,-2.491,0,0,-2.4256,-2.4296,-2.4348,-2.4389,-2.4451,-2.4484,-2.4496,-2.4563,-2.4587,-2.4656,-2.4677,-2.4724,-2.4817,-2.486,-2.4894,-2.4952,-2.4966,-2.4968,-2.4985,-2.5025,-2.5031,-2.5036,-2.5058,-2.5066,-2.4974,-2.4974,-2.4974,0,-2.4257,-2.4336,-2.4372,-2.4427,-2.4463,-2.4489,-2.4542,-2.458,-2.4657,-2.4682,-2.4676,-2.4795,-2.4837,-2.4918,-2.4933,-2.4959,-2.4975,-2.4961,-2.5027,-2.5032,-2.5038,-2.506,-2.5068,-2.4974,-2.4974,-2.4974,-2.4974,0,-2.4336,-2.4391,-2.4425,-2.4499,-2.4538,-2.4592,-2.4637,-2.4673,-2.4693,-2.4727,-2.4797,-2.4849,-2.4914,-2.4935,-2.4954,-2.502,-2.5016,-2.5018,-2.5009,-2.5044,-2.5066,-2.5074,-2.4974,-2.4974,-2.4974,-2.4974,0,0,-2.4367,-2.4461,-2.4473,-2.4507,-2.4578,-2.4621,-2.4676,-2.474,-2.4771,-2.4823,-2.4872,-2.495,-2.4953,-2.4992,-2.5016,-2.5051,-2.5096,-2.5049,-2.5052,-2.5058,-2.5174,-2.5173,-2.5182,-2.5105,-2.5107,-2.5108,-2.5169,0,-2.4418,-2.4517,-2.4552,-2.4634,-2.4686,-2.4711,-2.476,-2.4809,-2.4842,-2.4892,-2.4928,-2.4984,-2.4983,-2.5007,-2.5042,-2.5083,-2.512,-2.5079,-2.5152,-2.5154,-2.5138,-2.5193,-2.5192,-2.5247,-2.5178,-2.5179,-2.518,0,-2.449,-2.4544,-2.4631,-2.4697,-2.472,-2.4763,-2.4825,-2.4872,-2.4928,-2.495,-2.4994,-2.5016,-2.5076,-2.5062,-2.5146,-2.5117,-2.5149,-2.5174,-2.5177,-2.5186,-2.517,-2.5205,-2.5265,-2.5274,-2.5193,-2.5192,-2.5191,0,-2.4506,-2.46,-2.4665,-2.4693,-2.4771,-2.4801,-2.4835,-2.489,-2.4927,-2.4982,-2.5007,-2.5067,-2.5101,-2.5148,-2.5186,-2.5173,-2.5268,-2.5257,-2.5289,-2.5288,-2.5309,-2.5307,-2.5376,-2.5326,-2.5326,-2.5326,-2.5326,0,-2.456,-2.4613,-2.4673,-2.4713,-2.4774,-2.4813,-2.4873,-2.4908,-2.4958,-2.5006,-2.5031,-2.5076,-2.5124,-2.5175,-2.5206,-2.5272,-2.5286,-2.5307,-2.5315,-2.5306,-2.5303,-2.5328,-2.5326,-2.5328,-2.5328,-2.5327,-2.5327,0,-2.4588,-2.463,-2.4703,-2.4771,-2.479,-2.4832,-2.4891,-2.4931,-2.4966,-2.5026,-2.5043,-2.5098,-2.516,-2.5203,-2.5282,-2.5303,-2.5375,-2.5381,-2.5356,-2.536,-2.539,-2.5387,-2.5479,-2.5493,-2.5432,-2.5433,-2.5433,0,-2.462,-2.4662,-2.4735,-2.4769,-2.4803,-2.4857,-2.4896,-2.4936,-2.4975,-2.5044,-2.5076,-2.514,-2.5193,-2.5291,-2.5339,-2.54,-2.5409,-2.5437,-2.5419,-2.5409,-2.5412,-2.541,-2.5415,-2.544,-2.5441,-2.5441,-2.5441,0,-2.4674,-2.4693,-2.4747,-2.4808,-2.4853,-2.4903,-2.4954,-2.4981,-2.5031,-2.5073,-2.5137,-2.5178,-2.526,-2.5323,-2.539,-2.5425,-2.5443,-2.5447,-2.5458,-2.545,-2.5434,-2.5445,-2.5365,-2.5445,-2.5444,-2.5444,-2.5444,-2.5444,-2.4707,-2.4746,-2.4803,-2.4863,-2.4905,-2.4952,-2.4994,-2.5034,-2.5088,-2.5158,-2.5179,-2.5246,-2.5303,-2.5394,-2.5431,-2.5484,-2.5482,-2.5498,-2.5502,-2.5506,-2.5507,-2.5424,-2.5496,-2.5496,-2.5496,-2.5496,-2.5496,0,-2.4763,-2.4802,-2.4856,-2.4926,-2.4974,-2.4985,-2.5042,-2.5081,-2.5139,-2.5191,-2.5243,-2.5318,-2.538,-2.5432,-2.5497,-2.553,-2.5539,-2.5545,-2.5544,-2.5553,-2.5503,-2.5488,-2.5537,-2.5537,-2.5537,-2.5537,-2.5537,-2.5537,-2.4798,-2.4865,-2.4891,-2.498,-2.5019,-2.5084,-2.5116,-2.516,-2.5202,-2.5284,-2.5336,-2.5369,-2.5422,-2.5491,-2.5549,-2.5563,-2.5586,-2.5591,-2.5607,-2.556,-2.5556,-2.5551,-2.5538,-2.5595,-2.5595,-2.5652,-2.5653,-2.5653]}]]